FW5255 Weather Reports


time (UTC)temp
C
wind
direction
speed
KPH
gust
KPH
rain 1hr
cm
rain 24hr
cm
rain mn
cm
humidity
%
barometer
mb
20260504175108 22 287 0.0 0.0 0.00 0.00 0.00 40 1012.4
20260504174607 22 274 0.0 0.0 0.00 0.00 0.00 36 1012.5
20260504174103 22 320 0.0 0.0 0.00 0.00 0.00 37 1012.5
20260504173600 22 39 0.0 0.0 0.00 0.00 0.00 36 1012.7
20260504173058 22 283 0.0 0.0 0.00 0.00 0.00 37 1012.8
20260504172553 22 167 0.0 0.0 0.00 0.00 0.00 38 1012.6
20260504172050 22 291 0.0 0.0 0.00 0.00 0.00 38 1012.9
20260504171547 21 271 0.0 0.0 0.00 0.00 0.00 37 1012.7
20260504171044 21 260 0.0 0.0 0.00 0.00 0.00 35 1013.0
20260504170539 21 244 0.0 0.0 0.00 0.00 0.00 36 1013.0
20260504150918 18 274 0.0 0.0 0.00 0.00 0.00 51 1014.1
20260504150415 18 316 0.0 0.0 0.00 0.00 0.00 48 1014.3
20260504140841 17 258 0.0 0.0 0.00 0.00 0.00 58 1014.5
20260504140337 16 279 0.0 0.0 0.00 0.00 0.00 59 1014.2
20260504130806 15 318 0.0 0.0 0.00 0.00 0.00 64 1014.9
20260504130302 15 224 0.0 0.0 0.00 0.00 0.00 67 1014.9
20260504120225 11 304 0.0 0.0 0.00 0.00 0.00 79 1015.2
20260504110653 8 278 0.0 0.0 0.00 0.00 0.00 84 1015.7
20260504110149 8 278 0.0 0.0 0.00 0.00 0.00 84 1015.7
20260504100615 8 278 0.0 0.0 0.00 0.00 0.00 79 1015.7
20260504100113 8 278 0.0 0.0 0.00 0.00 0.00 79 1015.7
20260504081506 8 281 0.0 0.0 0.00 0.00 0.00 72 1015.5
20260504081001 8 281 0.0 0.0 0.00 0.00 0.00 72 1015.4
20260504080458 8 281 0.0 0.0 0.00 0.00 0.00 72 1015.7
20260504050305 9 281 0.0 0.0 0.00 0.00 0.00 64 1015.1
20260504045757 9 281 0.0 0.0 0.00 0.00 0.00 62 1015.1
20260504045256 9 281 0.0 0.0 0.00 0.00 0.00 63 1015.0
20260504044754 9 281 0.0 0.0 0.00 0.00 0.00 62 1015.0
20260504044252 9 281 0.0 0.0 0.00 0.00 0.00 62 1015.0
20260504043749 9 281 0.0 0.0 0.00 0.00 0.00 61 1014.9
20260504043245 9 281 0.0 0.0 0.00 0.00 0.00 62 1014.8
20260504042743 9 281 0.0 0.0 0.00 0.00 0.00 61 1014.8
20260504042239 9 281 0.0 0.0 0.00 0.00 0.00 61 1014.7
20260504041736 9 281 0.0 0.0 0.00 0.00 0.00 61 1014.8
20260504041232 9 281 0.0 0.0 0.00 0.00 0.00 61 1014.8
20260504040728 9 281 0.0 0.0 0.00 0.00 0.00 61 1014.7
20260504040226 9 281 0.0 0.0 0.00 0.00 0.00 61 1014.6
20260504035722 9 281 0.0 0.0 0.00 0.00 0.00 61 1014.5
20260504035219 9 281 0.0 0.0 0.00 0.00 0.00 61 1014.8
20260504034716 9 281 0.0 0.0 0.00 0.00 0.00 60 1014.5
20260504034213 9 281 0.0 0.0 0.00 0.00 0.00 60 1014.5
20260504033711 10 281 0.0 0.0 0.00 0.00 0.00 60 1014.5
20260504033208 10 281 0.0 0.0 0.00 0.00 0.00 59 1014.6
20260504032705 10 281 0.0 0.0 0.00 0.00 0.00 58 1014.3
20260504032202 10 281 0.0 0.0 0.00 0.00 0.00 59 1014.3
20260504031659 10 281 0.0 0.0 0.00 0.00 0.00 57 1014.2
20260504031155 10 281 0.0 0.0 0.00 0.00 0.00 58 1014.3
20260504030652 10 281 0.0 0.0 0.00 0.00 0.00 58 1014.4
20260504030149 10 281 0.0 0.0 0.00 0.00 0.00 57 1014.3
20260504025646 10 281 0.0 0.0 0.00 0.00 0.00 56 1014.5
20260504025142 10 281 0.0 0.0 0.00 0.00 0.00 56 1014.4
20260504024640 10 281 0.0 0.0 0.00 0.00 0.00 55 1014.4
20260504024136 10 281 0.0 0.0 0.00 0.00 0.00 55 1014.3
20260504023633 10 281 0.0 0.0 0.00 0.00 0.00 55 1014.3
20260504023129 10 281 0.0 0.0 0.00 0.00 0.00 53 1014.4
20260504022626 10 281 0.0 0.0 0.00 0.00 0.00 53 1014.4
20260504022121 10 281 0.0 0.0 0.00 0.00 0.00 54 1014.2
20260504021619 10 281 0.0 0.0 0.00 0.00 0.00 55 1014.2
20260504021116 10 281 0.0 0.0 0.00 0.00 0.00 54 1014.4
20260504020613 10 281 0.0 0.0 0.00 0.00 0.00 54 1014.3
20260504020109 11 281 0.0 0.0 0.00 0.00 0.00 54 1014.4
20260504015606 11 281 0.0 0.0 0.00 0.00 0.00 52 1014.5
20260504015102 11 281 0.0 0.0 0.00 0.00 0.00 52 1014.5
20260504014558 11 281 0.0 0.0 0.00 0.00 0.00 52 1014.3
20260504014055 11 281 0.0 0.0 0.00 0.00 0.00 53 1014.2
20260504013553 11 281 0.0 0.0 0.00 0.00 0.00 51 1014.3
20260504013050 11 281 0.0 0.0 0.00 0.00 0.00 51 1014.4
20260504012547 11 281 0.0 0.0 0.00 0.00 0.00 51 1014.2
20260504012045 11 281 0.0 0.0 0.00 0.00 0.00 49 1013.9
20260504011541 11 281 0.0 0.0 0.00 0.00 0.00 49 1013.8
20260504011037 11 281 0.0 0.0 0.00 0.00 0.00 49 1013.8
20260504010533 12 281 0.0 0.0 0.00 0.00 0.00 50 1013.8
20260504010030 12 281 0.0 0.0 0.00 0.00 0.00 49 1013.9
20260504005526 12 281 0.0 0.0 0.00 0.00 0.00 47 1013.8
20260504005024 12 281 0.0 0.0 0.00 0.00 0.00 48 1013.8
20260504004521 12 281 0.0 0.0 0.00 0.00 0.00 47 1013.6
20260504004018 12 281 0.0 0.0 0.00 0.00 0.00 46 1013.4
20260504003515 12 281 0.0 0.0 0.00 0.00 0.00 46 1013.4
20260504003012 13 281 0.0 0.0 0.00 0.00 0.00 44 1013.4
20260504002508 13 281 0.0 0.0 0.00 0.00 0.00 43 1013.2
20260504002006 13 281 0.0 0.0 0.00 0.00 0.00 43 1013.2
20260504001503 13 281 0.0 0.0 0.00 0.00 0.00 44 1013.0
20260504000959 13 281 0.0 0.0 0.00 0.00 0.00 44 1013.2
20260504000457 13 281 0.0 0.0 0.00 0.00 0.00 43 1013.2
20260503235954 13 281 0.0 0.0 0.00 0.00 0.00 40 1013.2
20260503235452 14 281 0.0 0.0 0.00 0.00 0.00 41 1013.2
20260503234949 14 281 0.0 0.0 0.00 0.00 0.00 40 1013.0
20260503234446 14 281 0.0 0.0 0.00 0.00 0.00 39 1013.0
20260503233944 14 274 0.0 0.0 0.00 0.00 0.00 39 1013.0
20260503233440 15 276 0.0 0.0 0.00 0.00 0.00 38 1012.9
20260503232937 15 287 0.0 0.0 0.00 0.00 0.00 37 1012.7
20260503232434 15 325 0.0 0.0 0.00 0.00 0.00 37 1012.9
20260503231932 15 273 0.0 0.0 0.00 0.00 0.00 39 1012.8
20260503231429 15 273 0.0 0.0 0.00 0.00 0.00 36 1012.8
20260503230925 15 283 0.0 0.0 0.00 0.00 0.00 37 1012.6
20260503230422 15 285 0.0 0.0 0.00 0.00 0.00 35 1012.5
20260503225920 15 281 0.0 0.0 0.00 0.00 0.00 37 1012.7
20260503225416 15 280 0.0 0.0 0.00 0.00 0.00 37 1012.4
20260503224912 15 273 0.0 0.0 0.00 0.00 0.00 38 1012.7
20260503224409 15 274 0.0 0.0 0.00 0.00 0.00 36 1012.7
20260503223907 15 293 0.0 0.0 0.00 0.00 0.00 35 1012.6
20260503223405 15 259 0.0 0.0 0.00 0.00 0.00 35 1012.5
20260503222859 15 259 0.0 0.0 0.00 0.00 0.00 35 1012.6
20260503222358 15 312 0.0 0.0 0.00 0.00 0.00 34 1012.7
20260503221856 15 287 0.0 0.0 0.00 0.00 0.00 35 1012.8
20260503221354 15 276 0.0 0.0 0.00 0.00 0.00 37 1012.5
20260503220849 15 322 0.0 0.0 0.00 0.00 0.00 35 1012.5
20260503220341 15 292 0.0 0.0 0.00 0.00 0.00 37 1012.6
20260503215838 15 253 0.0 0.0 0.00 0.00 0.00 36 1012.5
20260503215335 15 276 0.0 0.0 0.00 0.00 0.00 36 1012.8
20260503214833 15 79 0.0 1.6 0.00 0.00 0.00 34 1012.6
20260503214330 15 312 0.0 0.0 0.00 0.00 0.00 35 1012.7
20260503213827 15 326 0.0 0.0 0.00 0.00 0.00 37 1012.7
20260503213325 15 34 0.0 1.6 0.00 0.00 0.00 34 1012.5
20260503212821 15 284 0.0 0.0 0.00 0.00 0.00 37 1012.6
20260503212320 15 302 0.0 0.0 0.00 0.00 0.00 34 1012.4
20260503211816 15 305 0.0 0.0 0.00 0.00 0.00 35 1012.7
20260503211313 15 274 0.0 0.0 0.00 0.00 0.00 35 1012.5
20260503210813 15 229 0.0 0.0 0.00 0.00 0.00 35 1012.4
20260503210311 15 321 0.0 0.0 0.00 0.00 0.00 36 1012.6
20260503205806 15 312 0.0 0.0 0.00 0.00 0.00 38 1012.7
20260503205304 15 256 0.0 0.0 0.00 0.00 0.00 35 1012.9
20260503204753 15 269 0.0 0.0 0.00 0.00 0.00 35 1012.6
20260503204251 15 254 0.0 0.0 0.00 0.00 0.00 34 1012.5
20260503203748 15 294 0.0 0.0 0.00 0.00 0.00 39 1012.8
20260503203245 15 309 0.0 0.0 0.00 0.00 0.00 37 1012.7
20260503202742 15 356 0.0 0.0 0.00 0.00 0.00 36 1012.7
20260503202240 15 279 0.0 0.0 0.00 0.00 0.00 39 1012.8
20260503201738 15 49 0.0 1.6 0.00 0.00 0.00 34 1012.8
20260503201235 15 289 0.0 0.0 0.00 0.00 0.00 36 1012.7
20260503200731 15 277 0.0 0.0 0.00 0.00 0.00 34 1012.7
20260503200228 15 319 0.0 0.0 0.00 0.00 0.00 34 1012.9
20260503195725 15 295 0.0 0.0 0.00 0.00 0.00 35 1013.0
20260503195222 15 312 0.0 0.0 0.00 0.00 0.00 36 1012.6
20260503194719 15 65 0.0 0.0 0.00 0.00 0.00 34 1012.7
20260503194215 15 273 0.0 0.0 0.00 0.00 0.00 36 1012.9
20260503193711 15 35 0.0 0.0 0.00 0.00 0.00 38 1012.8
20260503193208 15 309 0.0 0.0 0.00 0.00 0.00 34 1013.0
20260503192703 16 275 0.0 0.0 0.00 0.00 0.00 35 1013.0
20260503192159 16 308 0.0 0.0 0.00 0.00 0.00 34 1013.1
20260503191655 16 286 0.0 0.0 0.00 0.00 0.00 32 1013.0
20260503191153 16 307 0.0 0.0 0.00 0.00 0.00 35 1013.1
20260503190649 15 307 0.0 0.0 0.00 0.00 0.00 36 1013.1
20260503190146 15 229 0.0 0.0 0.00 0.00 0.00 35 1013.4
20260503185643 15 281 0.0 0.0 0.00 0.00 0.00 36 1013.4
20260503185138 15 290 0.0 0.0 0.00 0.00 0.00 36 1013.3
20260503184633 14 271 0.0 0.0 0.00 0.00 0.00 41 1013.3
20260503184130 15 274 0.0 1.6 0.00 0.00 0.00 34 1013.4
20260503183627 15 285 0.0 0.0 0.00 0.00 0.00 36 1013.6
20260503183124 15 274 0.0 0.0 0.00 0.00 0.00 36 1013.4
20260503182622 15 285 0.0 0.0 0.00 0.00 0.00 42 1013.6
20260503182120 15 210 0.0 0.0 0.00 0.00 0.00 35 1013.3
20260503181616 15 242 0.0 0.0 0.00 0.00 0.00 37 1013.6
20260503181113 13 272 0.0 0.0 0.00 0.00 0.00 40 1013.8
20260503180611 13 296 0.0 0.0 0.00 0.00 0.00 40 1013.7
20260503180109 15 286 0.0 0.0 0.00 0.00 0.00 41 1014.0
20260503175605 15 285 0.0 0.0 0.00 0.00 0.00 41 1013.9